FW2122 Weather Reports


time (UTC)temp
C
wind
direction
speed
KPH
gust
KPH
rain 1hr
cm
rain 24hr
cm
rain mn
cm
humidity
%
barometer
mb
20260503211534 28 39 6.4 22.5 0.00 0.00 0.00 27 1014.5
20260503210034 28 29 6.4 22.5 0.00 0.00 0.00 27 1014.7
20260503204530 28 58 6.4 32.2 0.00 0.00 0.00 26 1014.9
20260503201536 28 75 4.8 19.3 0.00 0.00 0.00 30 1015.4
20260503194534 27 13 6.4 16.1 0.00 0.00 0.00 34 1015.5
20260503191536 27 336 8.0 17.7 0.00 0.00 0.00 35 1015.6
20260503190105 26 339 9.7 25.7 0.00 0.00 0.00 35 1015.8
20260503184534 26 334 8.0 19.3 0.00 0.00 0.00 36 1016.0
20260503183034 26 330 9.7 22.5 0.00 0.00 0.00 36 1016.1
20260503180154 24 325 9.7 24.1 0.00 0.00 0.00 40 1016.4
20260503180144 23 330 8.0 17.7 0.00 0.00 0.00 43 1016.6
20260503173107 22 336 3.2 11.3 0.00 0.00 0.00 46 1016.8
20260503171530 22 344 1.6 11.3 0.00 0.00 0.00 49 1016.9
20260503140109 8 146 1.6 6.4 0.00 0.00 0.00 91 1017.5
20260503090110 10 169 0.0 4.8 0.00 0.00 0.00 84 1017.5
20260503081534 11 173 0.0 3.2 0.00 0.00 0.00 82 1017.4
20260503071536 11 154 0.0 3.2 0.00 0.00 0.00 79 1017.4
20260503054538 14 180 0.0 3.2 0.00 0.00 0.00 72 1017.1
20260503053036 15 119 0.0 3.2 0.00 0.00 0.00 69 1017.0
20260503050036 15 266 1.6 6.4 0.00 0.00 0.00 69 1017.0
20260503044535 16 156 0.0 3.2 0.00 0.00 0.00 67 1016.9
20260503043037 16 178 0.0 3.2 0.00 0.00 0.00 64 1016.8
20260503041536 17 197 0.0 1.6 0.00 0.00 0.00 61 1016.6
20260503040044 18 226 1.6 6.4 0.00 0.00 0.00 61 1016.4
20260503034537 17 214 4.8 8.0 0.00 0.00 0.00 63 1016.2
20260503033036 18 168 0.0 4.8 0.00 0.00 0.00 61 1015.9
20260503031535 18 137 0.0 4.8 0.00 0.00 0.00 61 1015.5
20260503030037 19 162 0.0 3.2 0.00 0.00 0.00 61 1015.2
20260503024535 20 225 0.0 0.0 0.00 0.00 0.00 60 1015.0
20260503023033 21 225 0.0 1.6 0.00 0.00 0.00 59 1014.9
20260503021534 21 225 0.0 0.0 0.00 0.00 0.00 56 1014.8
20260503020031 22 225 0.0 0.0 0.00 0.00 0.00 53 1014.7
20260503014532 23 225 0.0 1.6 0.00 0.00 0.00 50 1014.7
20260503013111 24 240 0.0 3.2 0.00 0.00 0.00 47 1014.7
20260503011546 25 202 0.0 3.2 0.00 0.00 0.00 41 1014.7
20260503004533 25 130 0.0 3.2 0.00 0.00 0.00 38 1014.6
20260503003112 25 94 0.0 6.4 0.00 0.00 0.00 36 1014.6
20260503001535 26 54 1.6 16.1 0.00 0.00 0.00 35 1014.7
20260503000031 26 34 0.0 6.4 0.00 0.00 0.00 34 1014.8
20260502234537 26 38 0.0 6.4 0.00 0.00 0.00 35 1015.0
20260502233034 26 57 4.8 14.5 0.00 0.00 0.00 35 1015.1
20260502231651 26 86 4.8 19.3 0.00 0.00 0.00 35 1015.3
20260502230044 26 35 6.4 19.3 0.00 0.00 0.00 35 1015.4
20260502223035 25 354 9.7 32.2 0.00 0.00 0.00 38 1015.7
20260502221535 25 336 9.7 30.6 0.00 0.00 0.00 39 1015.9
20260502220040 25 1 3.2 14.5 0.00 0.00 0.00 42 1015.9
20260502214537 24 338 6.4 22.5 0.00 0.00 0.00 44 1016.2